Location: Gradaro
(45.0833°N, 10.8833°E)
Time: 23:23:56
(UTC+00:00)

Cosmos 2263 Rocket - Pass Details

Date: 27 April 2021
Orbit: 824 x 848 km, 71.0° (Epoch: 15 May)

Event Time Altitude Azimuth Distance (km) Brightness Sun altitude
Rises 22:30:55 0° 261° (W) 3,356 5.4 -30.0°
Reaches altitude 10° 22:34:30 10° 285° (WNW) 2,428 4.8 -30.1°
Maximum altitude 22:37:36 15° 319° (NW) 2,104 4.9 -30.2°
Drops below altitude 10° 22:40:42 10° 353° (N) 2,440 5.5 -30.3°
Sets 22:44:20 0° 17° (NNE) 3,381 6.3 -30.4°
